Regional Weather Roundup
Issued by NWS Jackson, KY

Home | Current Version | Previous Version | Text Only | Print | Product List | Glossary Off
Versions: 1 2 3 4 5 6 7 8 9 10 11 12 13 14 15 16 17 18 19 20 21 22 23 24 25 26 27 28

000
ASUS43 KJKL 230010
RWRJKL

EAST KENTUCKY HOURLY WEATHER ROUNDUP
NATIONAL WEATHER SERVICE JACKSON KY
800 PM EDT WED MAR 22 2017

NOTE: "FAIR" INDICATES FEW OR NO CLOUDS BELOW 12,000 FEET WITH
NO SIGNIFICANT WEATHER AND/OR OBSTRUCTIONS TO VISIBILITY.

* THESE REPORTS ARE NOT UNDER NWS QUALITY CONTROL AND MAY NOT
  REPORT WEATHER SUCH AS PRECIPITATION AND FOG.

KYZ079-080-083-085-087-088-110-112-115-119-120-230100
...EASTERN KENTUCKY...

CITY           SKY/WX    TMP DP  RH WIND       PRES   REMARKS
JACKSON        CLEAR     41  13  31 VRB6      30.37R
6HR MIN TEMP:  41; 6HR MAX TEMP:  51;

LONDON         CLEAR     45  14  28 NE8       30.35R
6HR MIN TEMP:  45; 6HR MAX TEMP:  52;

SOMERSET*      CLEAR     43  19  39 N10G17    30.36R
MONTICELLO*    CLEAR     45  20  36 N21       30.36R
6HR MIN TEMP:  45; 6HR MAX TEMP:  51;

WILLIAMSBURG*  CLEAR     46  14  27 N8        30.33R
MIDDLESBORO*   CLEAR     49  17  27 NE5       30.32R
6HR MIN TEMP:  49; 6HR MAX TEMP:  56;

HARLAN APT*    CLEAR     46  12  25 N5        30.33R
PIKE CO APT*     N/A     41  15  34 N10       30.37R
BIG SANDY APT* CLEAR     40  17  38 N6        30.39R
6HR MIN TEMP:  40; 6HR MAX TEMP:  49;

MOREHEAD APT*  PTCLDY    41  14  33 NE6G13    30.42R
ASHLAND*       PTCLDY    43  16  33 E6        30.43R
$$

KYZ035-036-041-042-044-050-067-078-099-230100
...CENTRAL KENTUCKY...

CITY           SKY/WX    TMP DP  RH WIND       PRES   REMARKS
MT STERLING*   CLEAR     39  19  45 NE9       30.41R WCI  33
FLEMING/MASON* CLEAR     38  17  41 NE8       30.44R WCI  33
DANVILLE*      CLEAR     39  21  48 NE9       30.40R WCI  33
LEXINGTON      CLEAR     39  17  41 NE10      30.41R WCI  32
6HR MIN TEMP:  39; 6HR MAX TEMP:  47;

FRANKFORT      CLEAR     42  17  36 NE7       30.41R
6HR MIN TEMP:  42; 6HR MAX TEMP:  48;

LOUISVILLE     PTCLDY    45  13  27 E12       30.42R
6HR MIN TEMP:  45; 6HR MAX TEMP:  51;

LEBANON*         N/A     41  18  38 NE8       30.40R
GLASGOW*       CLEAR     46  18  33 NE9       30.36R
BOWLING GREEN  CLEAR     46  20  35 E8        30.36R
6HR MIN TEMP:  46; 6HR MAX TEMP:  55;

$$

KYZ091>093-OHZ055-061-077-WVZ005-015-034-035-042-230100
...SOUTHERN OHIO/WEST VIRGINIA...

CITY           SKY/WX    TMP DP  RH WIND       PRES   REMARKS
COVINGTON      PTCLDY    38  18  44 E13       30.44R WCI  30
COLUMBUS       PTCLDY    36  16  44 NE12      30.47F WCI  28
DAYTON         PTCLDY    33  17  51 NE8       30.47S WCI  26
WILMINGTON     PTCLDY    33  21  61 NE12      30.45S WCI  24
HUNTINGTON     CLEAR     41  12  30 NE9       30.42R
CHARLESTON     CLEAR     41  13  31 N5        30.41R
PINEVILLE*     CLEAR     42  10  26 MISG      30.40R
BECKLEY        CLEAR     36  12  37 N10       30.34R WCI  28
BLUEFIELD      CLEAR     37  14  38 N5        30.32R WCI  33
LOGAN CO APT*    N/A     39  12  33 CALM      30.37R
$$

VAZ002-007-008-TNZ017-027-036-066-071-230100
...SOUTHWEST VIRGINIA/EAST TENNESSEE...

CITY           SKY/WX    TMP DP  RH WIND       PRES   REMARKS
WISE*          CLEAR     39  12  33 CALM      30.33R
JONESVILLE*      N/A     48  16  27 CALM      30.33R
ABINGDON*      CLEAR     47  14  26 NE3       30.31R
BRISTOL        PTCLDY    47  15  27 N8        30.31R
MORRISTOWN*    CLEAR     52  18  25 NE6       30.27R
SEVIERVILLE*   CLEAR     52  25  35 NE3       30.27R
KNOXVILLE      MOCLDY    54  20  26 N8        30.26R
LAFOLLETTE*    CLEAR     50  14  23 VRB5G13   30.32S
OAK RIDGE      CLEAR     54  17  23 N5        30.29R
CROSSVILLE     CLEAR     49  17  28 NE9       30.28R
NASHVILLE      MOCLDY    52  19  27 N12       30.33R
$$

...KEY TO REMARKS...
VSB - VISIBILITY IN MILES
WCI - WIND CHILL INDEX
HX  - HEAT INDEX

$$




USA.gov is the U.S. government's official web portal to all federal, state and local government web resources and services.